FW0887 Weather Reports


Display with metric or nautical units.
time (UTC)temp
F
wind
direction
speed
MPH
gust
MPH
rain 1hr
in
rain 24hr
in
rain mn
in
humidity
%
barometer
mb
20260905193957 62 0.0 0.0 0.00 0.14 0.14 65 1024.3
20260905193020 61 225 0.0 0.0 0.00 0.14 0.14 65 1023.6
20260905191526 62 225 0.0 0.0 0.00 0.14 0.14 62 1023.5
20260905190029 63 225 0.0 1.0 0.00 0.14 0.14 61 1023.3
20260905184522 63 225 0.0 2.0 0.00 0.14 0.14 61 1023.1
20260905184230 64 0.0 1.0 0.00 0.14 0.14 61 1023.7
20260905183014 64 225 0.0 3.0 0.00 0.14 0.14 60 1023.0
20260905181512 64 284 0.0 3.0 0.00 0.14 0.14 59 1022.7
20260905180012 65 324 1.0 3.0 0.00 0.14 0.14 58 1022.3
20260905174509 66 252 0.0 4.0 0.00 0.14 0.14 58 1022.1
20260905174119 67 270 2.0 2.0 0.00 0.14 0.14 56 1022.8
20260905173005 66 274 1.0 4.0 0.00 0.14 0.14 57 1021.9
20260905171504 67 266 1.0 5.0 0.00 0.14 0.14 57 1021.7
20260905170002 68 295 1.0 7.0 0.00 0.14 0.14 57 1021.5
20260905164501 68 178 1.0 6.0 0.00 0.14 0.14 57 1021.2
20260905164024 70 270 2.0 4.0 0.00 0.14 0.14 55 1022.0
20260905163058 69 208 2.0 6.0 0.00 0.14 0.14 55 1021.0
20260905161557 70 268 2.0 10.0 0.00 0.14 0.14 54 1020.7
20260905160059 70 198 2.0 9.0 0.00 0.14 0.14 54 1020.5
20260905154556 70 296 2.0 9.0 0.00 0.14 0.14 52 1020.4
20260905153954 71 270 2.0 3.0 0.00 0.14 0.14 53 1021.6
20260905153107 70 269 2.0 12.0 0.00 0.14 0.14 53 1020.5
20260905151558 71 291 2.0 7.0 0.00 0.14 0.14 54 1020.3
20260905150056 71 265 1.0 9.0 0.00 0.14 0.14 55 1020.1
20260905144552 70 241 1.0 7.0 0.00 0.14 0.14 58 1020.0
20260905144007 70 293 2.0 3.0 0.00 0.14 0.14 62 1021.1
20260905143051 70 294 2.0 8.0 0.00 0.14 0.14 62 1019.9
20260905141600 72 265 2.0 9.0 0.00 0.14 0.14 60 1020.0
20260905140053 71 278 2.0 6.0 0.00 0.14 0.14 60 1020.0
20260905134550 71 296 1.0 7.0 0.00 0.14 0.14 60 1019.7
20260905133937 71 248 2.0 3.0 0.00 0.14 0.14 62 1021.3
20260905133049 71 189 1.0 7.0 0.00 0.14 0.14 62 1019.8
20260905131559 72 205 2.0 8.0 0.00 0.14 0.14 59 1020.0
20260905130048 72 253 1.0 4.0 0.00 0.14 0.14 60 1020.0
20260905124545 72 268 2.0 6.0 0.00 0.14 0.14 62 1020.0
20260905123908 70 248 2.0 3.0 0.00 0.14 0.14 66 1021.6
20260905123043 69 267 2.0 11.0 0.00 0.14 0.14 67 1020.0
20260905121542 67 253 2.0 7.0 0.00 0.14 0.14 66 1020.1
20260905120042 68 296 2.0 14.0 0.00 0.14 0.14 67 1020.2
20260905114549 69 211 2.0 8.0 0.00 0.14 0.14 68 1020.3
20260905113940 69 225 3.0 7.0 0.00 0.14 0.14 72 1022.0
20260905113041 69 251 3.0 8.0 0.00 0.14 0.14 72 1020.4
20260905111543 67 198 1.0 9.0 0.00 0.14 0.14 71 1020.5
20260905110040 67 275 1.0 3.0 0.00 0.14 0.14 73 1020.6
20260905104544 66 226 1.0 6.0 0.00 0.14 0.14 78 1020.6
20260905103910 66 270 1.0 3.0 0.00 0.14 0.14 77 1022.1
20260905103039 65 269 1.0 4.0 0.00 0.14 0.14 77 1020.6
20260905101538 65 268 0.0 3.0 0.00 0.14 0.14 78 1020.7
20260905100037 65 251 4.0 10.0 0.00 0.14 0.14 80 1020.6
20260905094537 64 242 3.0 11.0 0.00 0.15 0.14 80 1020.7
20260905094044 64 225 5.0 6.0 0.00 0.15 0.14 81 1022.1
20260905093039 64 207 5.0 10.0 0.00 0.15 0.14 81 1020.6
20260905091537 63 215 3.0 10.0 0.00 0.15 0.14 83 1020.6
20260905090044 62 206 2.0 10.0 0.00 0.15 0.14 84 1020.5
20260905084534 61 211 3.0 10.0 0.00 0.15 0.14 85 1020.5
20260905083915 61 248 1.0 2.0 0.00 0.15 0.14 88 1022.0
20260905083043 60 261 0.0 7.0 0.00 0.15 0.14 88 1020.5
20260905081531 60 265 1.0 7.0 0.00 0.15 0.14 89 1020.4
20260905080040 59 221 1.0 5.0 0.00 0.15 0.14 90 1020.3
20260905074529 59 210 5.0 10.0 0.00 0.15 0.14 90 1020.2
20260905073945 59 0.0 1.0 0.00 0.15 0.14 91 1021.3
20260905073028 59 224 0.0 10.0 0.00 0.15 0.14 91 1020.0
20260905071527 59 207 2.0 8.0 0.00 0.15 0.14 92 1019.7
20260905070025 58 211 2.0 5.0 0.00 0.15 0.14 92 1019.7
20260905064524 58 215 2.0 5.0 0.00 0.15 0.14 92 1019.6
20260905063916 58 203 3.0 5.0 0.00 0.15 0.14 92 1020.8
20260905063023 58 210 3.0 6.0 0.00 0.15 0.14 92 1019.4
20260905061522 57 219 1.0 4.0 0.00 0.15 0.14 92 1019.4
20260905060027 56 219 1.0 4.0 0.00 0.15 0.14 91 1019.3
20260905054531 56 219 1.0 4.0 0.00 0.15 0.14 91 1019.3
20260905053846 56 225 1.0 3.0 0.00 0.15 0.14 91 1020.4
20260905053018 55 219 1.0 3.0 0.00 0.15 0.14 91 1019.1
20260905051525 55 219 0.0 1.0 0.00 0.15 0.14 90 1018.9
20260905050017 54 219 0.0 2.0 0.00 0.15 0.14 90 1018.7
20260905044514 55 219 1.0 3.0 0.00 0.15 0.14 90 1018.3
20260905043923 55 225 1.0 1.0 0.00 0.15 0.14 89 1019.7
20260905043010 55 219 0.0 2.0 0.00 0.15 0.14 89 1018.2
20260905041510 55 219 0.0 2.0 0.02 0.15 0.14 89 1017.9
20260905040009 55 219 0.0 2.0 0.05 0.15 0.14 89 1017.9
20260905034510 55 219 1.0 4.0 0.07 0.15 0.14 88 1018.0
20260905034033 56 225 3.0 5.0 0.09 0.15 0.14 87 1019.5
20260905033005 56 219 2.0 5.0 0.09 0.15 0.14 87 1017.8
20260905031502 57 227 1.0 4.0 0.08 0.13 0.13 86 1017.9
20260905030100 57 228 0.0 3.0 0.06 0.10 0.09 86 1017.9
20260905024558 58 228 0.0 3.0 0.04 0.08 0.07 86 1017.8
20260905023913 59 0.0 0.0 0.05 0.06 0.06 84 1019.3
20260905023055 58 227 0.0 2.0 0.05 0.06 0.06 85 1017.5
20260905021557 58 227 0.0 0.0 0.04 0.06 0.05 83 1017.6
20260905020054 59 227 0.0 0.0 0.03 0.05 0.04 82 1017.3
20260905014551 59 227 0.0 1.0 0.03 0.04 0.03 79 1016.8
20260905013823 61 0.0 0.0 0.01 0.02 0.01 77 1018.6
20260905013047 60 227 0.0 4.0 0.01 0.02 0.01 77 1016.9
20260905011549 61 264 0.0 1.0 0.01 0.02 0.01 74 1016.4
20260905010041 63 264 0.0 4.0 0.01 0.02 0.01 71 1016.1
20260905004539 64 271 1.0 4.0 0.00 0.01 0.00 64 1016.1
20260905003752 66 225 1.0 1.0 0.00 0.01 0.00 65 1017.7
20260905003033 65 279 2.0 6.0 0.00 0.01 0.00 64 1016.0
20260905001529 66 272 1.0 5.0 0.00 0.01 0.00 64 1015.3
20260905000033 67 275 0.0 4.0 0.00 0.01 0.00 65 1015.4
20260904234524 67 269 1.0 4.0 0.00 0.01 0.00 65 1015.6
20260904233825 69 248 2.0 5.0 0.00 0.01 0.00 64 1017.2
20260904233023 68 305 2.0 10.0 0.00 0.01 0.00 65 1015.2
20260904231522 69 88 3.0 10.0 0.00 0.01 0.00 66 1015.0
20260904230039 71 285 4.0 13.0 0.00 0.01 0.00 67 1014.9
20260904224513 72 269 2.0 9.0 0.00 0.01 0.00 68 1014.2
20260904223923 70 0.0 0.0 0.00 0.01 0.00 70 1015.3
20260904223007 70 246 0.0 0.0 0.00 0.01 0.00 70 1013.3
20260904221506 70 276 0.0 0.0 0.00 0.01 0.00 70 1013.2
20260904220005 70 208 0.0 0.0 0.00 0.01 0.00 69 1012.9
20260904214503 70 208 0.0 0.0 0.00 0.01 0.01 69 1012.7
20260904213751 71 0.0 0.0 0.00 0.01 0.01 68 1014.3
20260904213102 70 208 0.0 0.0 0.00 0.01 0.01 68 1012.5
20260904211500 71 208 0.0 0.0 0.00 0.01 0.01 68 1012.3
20260904210101 71 208 0.0 0.0 0.00 0.01 0.01 68 1012.2
20260904210003 71 208 0.0 0.0 0.00 0.01 0.01 68 1012.2
20260904204600 71 208 0.0 1.0 0.00 0.01 0.01 68 1012.2
20260904203727 73 0.0 0.0 0.00 0.01 0.01 67 1014.0
20260904203059 72 208 0.0 2.0 0.00 0.01 0.01 66 1012.3
20260904201600 72 208 0.0 5.0 0.00 0.01 0.01 67 1012.2
20260904200108 73 201 1.0 5.0 0.00 0.01 0.01 66 1012.2
20260904194559 72 198 2.0 5.0 0.00 0.01 0.01 66 1012.2